Regional Weather Roundup
Issued by NWS

Home | Current Version | Previous Version | Graphics & Text | Print | Product List | Glossary On
Versions: 1 2 3 4 5 6 7 8 9 10 11 12 13 14 15 16 17 18 19 20 21 22 23 24 25 26 27 28 29 30 31 32 33 34 35 36 37 38 39 40 41 42 43 44 45 46 47 48 49 50
000
ASUS43 KLMK 192210
RWRKY
KENTUCKY REGIONAL WEATHER ROUNDUP
NATIONAL WEATHER SERVICE LOUISVILLE KY
500 PM EST THU JAN 19 2017

NOTE "FAIR" INDICATES FEW OR NO CLOUDS BELOW 12,000 FEET
WITH NO SIGNIFICANT WEATHER AND/OR OBSTRUCTIONS TO VISIBILITY.

KYZ001>023-026-027-061>063-070>075-192300-
WESTERN AND SOUTH CENTRAL KENTUCKY

CITY           SKY/WX    TMP DP  RH WIND       PRES   REMARKS
PADUCAH        CLOUDY    57  55  93 S7        29.72S
HENDERSON      CLOUDY    52  46  82 E9        29.74F
OWENSBORO      LGT RAIN  53  51  93 SE8       29.78F
HOPKINSVILLE   DRIZZLE   55  55 100 SE7       29.76F
BOWLING GREEN  LGT RAIN  56  54  93 E5        29.81F
GLASGOW        HVY RAIN N/A N/A N/A E5        29.82F
$$

KYZ024-025-028>034-038-045-046-053-192300-
NORTH CENTRAL KENTUCKY

CITY           SKY/WX    TMP DP  RH WIND       PRES   REMARKS
LOUISVILLE/SDF CLOUDY    53  44  71 SE12      29.84S
LOUISVILLE/LOU CLOUDY    53  44  71 SE9       29.85F
FORT KNOX      LGT RAIN  50  49  95 E7        29.81F
$$

KYZ035>037-039>044-047>052-055>060-089>105-192300-
NORTHEAST KENTUCKY

CITY           SKY/WX    TMP DP  RH WIND       PRES   REMARKS
LEXINGTON      LGT RAIN  53  40  61 E8        29.88F
COVINGTON      CLOUDY    49  41  74 E9        29.89F
FRANKFORT      RAIN      52  41  66 E9        29.86F
$$

KYZ054-064>069-076>088-106>120-192300-
SOUTHEAST KENTUCKY

CITY           SKY/WX    TMP DP  RH WIND       PRES   REMARKS
JACKSON        LGT RAIN  53  41  63 CALM      29.92F
LONDON         CLOUDY    50  47  89 SE7       29.90F
SOMERSET       CLOUDY    50  50 100 E5        29.90S
MIDDLESBORO    CLOUDY    52  49  90 W3        29.95S
MONTICELLO     CLOUDY    55  51  86 VRB5      29.89F
$$




USA.gov is the U.S. government's official web portal to all federal, state and local government web resources and services.